Tracking 19854 objects as of 22-Sep-2019
HD Live streaming from Space Station
objects crossing your sky now

FENGYUN 1C DEB

Track FENGYUN 1C DEB now!
10-day predictions


NORAD ID: 37069
Int'l Code: 1999-025EFD
Perigee: 820.4 km
Apogee: 1,504.5 km
Inclination: 95.8 °
Period: 108.5 minutes
Semi major axis: 7533 km
RCS: 0.0144 m2 (small)
Launch date: May 10, 1999
Source: People's Republic of China (PRC)
Launch site: Taiyaun Space Center, China (TSC)

Note: This is SATELLITE DEBRIS
aabbcc
Your satellite tracking list
Your tracking list is empty




NASA's NSSDC Master Catalog

Two Line Element Set (TLE):
1 37069U 99025EFD 19258.32567826 +.00000594 +00000-0 +77122-3 0  9994
2 37069 095.8486 093.4137 0454063 207.0918 150.5851 13.27736631573721
Source of the keplerian elements: AFSPC